Tracking 31027 objects as of 19-Jul-2025
HD Live streaming from Space Station
objects crossing your sky now

TITAN 3C TRANSTAGE DEB

Track TITAN 3C TRANSTAGE DEB now!
10-day predictions


NORAD ID: 1642
Int'l Code: 1965-082D
Perigee: 608.9 km
Apogee: 641.2 km
Inclination: 32.1 °
Period: 97.1 minutes
Semi major axis: 6996 km
RCS: 2.2943 m2 (large)
Launch date: October 15, 1965
Source: United States (US)
Launch site: AIR FORCE EASTERN TEST RANGE (AFETR)

Note: This is SATELLITE DEBRIS
Your satellite tracking list
IRIDIUM 33 DEB
Track 1 satellite(s)




NASA's NSSDC Master Catalog

Two Line Element Set (TLE):
1 01642U 65082D   25199.64220789  .00000847  00000-0  94773-4 0  9991
2 01642  32.0937  68.4108 0023069  95.1148 265.2137 14.83629399187998
Source of the keplerian elements: AFSPC